Change the Weather History Date:

Wednesday, June 27, 2012

  Actual Average Record
Temperature  
Mean Temperature 86 °F -  
Max Temperature 101 °F 98 °F 107 °F (2008)
Min Temperature 70 °F 68 °F 62 °F (2003)
Cooling Degree Days 20    
Growing Degree Days 36 (Base 50)    
Moisture  
Dew Point 53 °F    
Average Humidity 35    
Maximum Humidity 69    
Minimum Humidity 10    
Precipitation  
Precipitation 0.00 in - - ()
Sea Level Pressure  
Sea Level Pressure 29.72 in    
Wind  
Wind Speed 13 mph ()    
Max Wind Speed 28 mph    
Max Gust Speed -    
Visibility 5.9 miles    
Events      
Averages and records for this station are not official NWS values.
T = Trace of Precipitation, MM = Missing Value Source: Averaged Metar Reports

Daily Weather History Graph

Daily Weather History Graph

Search for Another Location

Airport or City:

Trip Planner

Search our weather history database for the weather conditions in past years. The results will help you decide how hot, cold, wet, or windy it might be!

Date:

Astronomy

Jun. 27, 2012 Rise Set
Actual Time 5:28 AM AST 7:39 PM AST
Civil Twilight 5:00 AM AST 8:07 PM AST
Nautical Twilight 4:26 AM AST 8:41 PM AST
Astronomical Twilight 3:49 AM AST 9:18 PM AST
Moon 12:56 PM AST (6/27) No Moon Set
Length of Visible Light 15h 06m
Length of Day
14h 10m
First Quarter, 53% of the Moon is Illuminated
Jun 27
First Quarter
Jul 3
Full
Jul 11
Last Quarter
Jul 19
New
Jul 26
First Quarter

Hourly Weather History & Observations

Time (AST) Temp. Heat Index Dew Point Humidity Pressure Visibility Wind Dir Wind Speed Gust Speed Precip Events Conditions
12:00 AM 82 °F - 54 °F 27% 29.66 in 6 mi West 13.8 mph - -  
12:00 AM 82.4 °F 81.4 °F 53.6 °F 37% 29.80 in - West 13.8 mph - N/A   Clear
1:00 AM 77.0 °F - 55.4 °F 47% 29.80 in - NW 6.9 mph - N/A   Clear
2:00 AM 77.0 °F - 53.6 °F 44% 29.80 in - WNW 11.5 mph - N/A   Clear
3:00 AM 76 °F - 55 °F 38% 29.65 in 6 mi NW 9.2 mph - -  
3:00 AM 77.0 °F - 55.4 °F 47% 29.80 in - NW 9.2 mph - N/A   Clear
4:00 AM 75.2 °F - 57.2 °F 53% 29.80 in - WNW 11.5 mph - N/A   Clear
5:00 AM 71.6 °F - 59.0 °F 64% 29.80 in - WNW 11.5 mph - N/A   Clear
6:00 AM 70 °F - 59 °F 60% 29.66 in 6 mi WNW 13.8 mph - -  
6:00 AM 69.8 °F - 59.0 °F 68% 29.77 in - WNW 13.8 mph - N/A   Clear
7:00 AM 71.6 °F - 60.8 °F 69% 29.80 in - West 16.1 mph - N/A   Clear
8:00 AM 77.0 °F - 59.0 °F 54% 29.80 in - West 18.4 mph - N/A   Clear
9:00 AM 80 °F - 59 °F 38% 29.70 in 6 mi WNW 23.0 mph - -  
9:00 AM 78.8 °F - 59.0 °F 51% 29.80 in - WNW 23.0 mph - N/A   Clear
10:00 AM 86.0 °F 86.1 °F 60.8 °F 43% 29.77 in - WNW 20.7 mph - N/A   Clear
11:00 AM 89.6 °F 88.9 °F 59.0 °F 36% 29.77 in - WNW 18.4 mph - N/A   Clear
12:00 PM 92 °F - 50 °F 15% 29.66 in 6 mi NNW 9.2 mph - -  
12:00 PM 91.4 °F - 50.0 °F 24% 29.74 in - NNW 9.2 mph - N/A   Clear
1:00 PM 95.0 °F - 50.0 °F 22% 29.74 in - West 13.8 mph - N/A   Clear
2:00 PM 96.8 °F - 48.2 °F 19% 29.71 in - NW 13.8 mph - N/A   Clear
3:00 PM 98 °F - 46 °F 10% 29.60 in 6 mi NW 13.8 mph - -  
3:00 PM 96.8 °F - 46.4 °F 18% 29.71 in - NW 13.8 mph - N/A   Clear
4:00 PM 98.6 °F - 51.8 °F 21% 29.68 in 5.0 mi WNW 25.3 mph - N/A   Clear
5:00 PM 96.8 °F - 51.8 °F 22% 29.68 in - West 18.4 mph - N/A   Clear
6:00 PM 96 °F - 50 °F 13% 29.55 in 6 mi WNW 20.7 mph - -  
6:00 PM 96.8 °F - 50.0 °F 20% 29.68 in - WNW 20.7 mph - N/A   Clear
7:00 PM 93.2 °F - 51.8 °F 24% 29.68 in - WNW 27.6 mph - N/A   Clear
8:00 PM 89.6 °F - 51.8 °F 27% 29.68 in - WNW 23.0 mph - N/A   Clear
9:00 PM 87 °F - 46 °F 15% 29.58 in 6 mi West 23.0 mph - -  
9:00 PM 87.8 °F - 46.4 °F 24% 29.71 in - West 23.0 mph - N/A   Clear
10:00 PM 86.0 °F - 46.4 °F 25% 29.74 in - West 11.5 mph - N/A   Clear
11:00 PM 80.6 °F - 48.2 °F 32% 29.74 in - WNW 11.5 mph - N/A   Clear